www.pogodaiklimat.ru

Погода и климат >> Архив погоды >> Германия >> Кемптен


ПОГОДА в Кемптене

  • Прогноз погоды в Кемптене
  • Монитор погоды в Кемптене

АРХИВ ПОГОДЫ в Кемптене

Время (UTC), дата Ветер
(напр.,м/с)
 
Видим.   Явления Облачность Т
(С)
Тd
(С)
f
(%)
Тe
(С)
Тes
(С)
Комфортность P
(гПа)
Po
(гПа)
Тmin
(С)
Tmax
(С)
R
(мм)
R24
(мм)
S
(см)
19 10.06 В 1 28 км 10/10 570 м
[]
+15.4 +13.8 90 +16 +16 1012.0 932.4
20 10.06 СВ 1 18 км 10/10 540 м
[]
+15.0 +13.8 93 +15 +15 1011.8 932.1
21 10.06 СЗ 1 14 км 10/10 1500 м
[]
+14.6 +13.8 95 +15 +15 1011.0 931.3
22 10.06 СЗ 1 9000 м 10/10 210 м
[]
+14.6 +13.8 95 +15 +15 1010.5 930.8
23 10.06 З 1-1
{2}
14 км 10/10 1230 м
[]
+14.4 +13.3 93 +15 +15 1010.7 930.9
00 11.06 СЗ 1 8000 м слаб. дождь {морось} 10/10 200 м
[]
+14.3 +13.5 95 +15 +15 1011.2 931.4 0.0
01 11.06 З 1 2000 м слаб. морось с дождем 10/10 120 м
[]
+12.9 +12.4 97 +13 +13 1012.3 932.0
02 11.06 ЮЗ 2 7000 м слаб. дождь 10/10 450 м
[]
+11.8 +11.0 95 +11 +11 1013.7 932.9
03 11.06 ЮЗ 3 23 км слаб. дождь {морось} 10/10 500 м
[]
+11.0 +9.6 91 +9 +9 1014.5 933.4 4
04 11.06 В 3 6000 м слаб. дождь {морось} 9/9 1500 м
[]
+10.3 +9.3 94 +8 +8 1013.4 932.2
05 11.06 В 2-3
{3}
55 км в посл. час дождь {морось} 3/0
[]
+10.8 +9.3 90 +9 +10 1012.5 931.5
06 11.06 В 1 35 км {дождь, морось} ясно +13.4 +9.8 79 +14 +18 1011.0 930.8 +10.2 +16.0 5
07 11.06 В 3-6
{7}
15 км ясно +14.6 +10.4 76 +14 +20 1009.6 929.9
08 11.06 В 3-7
{7}
14 км 4/4 570 м
[]
+15.8 +10.5 71 +15 +21 1008.7 929.4
09 11.06 В 3 9000 м 3/3 660 м
[]
+17.0 +11.4 70 +17 +25 1007.8 928.9
10 11.06 СВ 2-5
{8}
29 км 10/10 700 м
[]
+17.0 +11.9 72 +17 +17 1007.7 928.8
11 11.06 С 3 15 км 6/6 570 м
[]
+17.9 +11.6 67 +18 +24 1007.6 928.9
12 11.06 СВ 2 30 км 10/10 570 м
[]
+17.8 +11.9 68 +18 +18 1007.6 928.9
13 11.06 С 2 23 км 10/10 660 м
[]
+18.0 +13.0 73 +19 +19 1007.6 929.0
14 11.06 СЗ 2 20 км 10/10 660 м
[]
+17.5 +13.1 75 +18 +18 1008.3 929.5
15 11.06 СЗ 2 17 км 10/10 660 м
[]
+17.2 +13.2 77 +18 +18 1008.2 929.3
16 11.06 СЗ 2 14 км 10/10 500 м
[]
+16.6 +13.6 82 +17 +17 1008.5 929.5
17 11.06 С 2 13 км 10/10 330 м
[]
+16.1 +13.7 86 +16 +16 1009.4 930.2
18 11.06 СЗ 2 12 км 10/10 300 м
[]
+15.9 +13.7 87 +16 +16 1009.2 929.9 +13.3 +18.6
19 11.06 СЗ 2 10 км 10/10 270 м
[]
+15.5 +13.6 88 +15 +15 1009.5 930.1
20 11.06 С 1-3
{3}
10 км 10/10 360 м
[]
+15.4 +13.5 88 +16 +16 1009.4 930.0
21 11.06 СЗ 1 10 км 10/10 270 м
[]
+15.2 +13.5 90 +16 +16 1009.7 930.2
22 11.06 З 1 6000 м дымка 9/9 180 м
[]
+14.9 +13.7 93 +15 +15 1010.2 930.6
23 11.06 В 1 4600 м в посл. час дождь 10/10 180 м
[]
+14.7 +13.7 94 +15 +15 1009.3 929.7
00 12.06 В 2 5000 м в посл. час дождь 9/9 200 м
[]
+14.5 +13.4 93 +14 +14 1008.6 929.0 0.0
01 12.06 З 1 3700 м в посл. час дождь 10/10 270 м
[]
+14.4 +13.7 96 +15 +15 1007.8 928.3
02 12.06 Ю 1 3800 м в посл. час дождь {морось} 9/9 300 м
[]
+14.3 +13.6 96 +15 +15 1007.0 927.5
03 12.06 СЗ 1 3100 м дымка {дождь} 10/10 240 м
[]
+14.3 +13.8 97 +15 +15 1006.7 927.2 0.0
04 12.06 СЗ 1 3700 м дымка 10/10 90 м
[]
+14.3 +13.7 96 +15 +15 1006.7 927.2
05 12.06 СЗ 2-4
{4}
2300 м морось {дымка} 10/10 90 м
[]
+13.9 +13.3 96 +13 +13 1006.8 927.2
06 12.06 СЗ 2 2200 м морось {дождь} 10/10 100 м
[]
+13.9 +13.5 97 +13 +13 1006.9 927.3 +13.7 +15.9 0.1
07 12.06 Ю 1 10 км в посл. час дождь {морось} 10/10 180 м
[]
+14.0 +12.9 93 +14 +14 1007.7 928.0
08 12.06 ЮЗ 2 30 км 10/10 400 м
[]
+15.1 +13.2 88 +15 +15 1007.9 928.5
09 12.06 З 4 20 км в посл. час дождь {морось} 10/10 270 м
[]
+12.6 +10.3 86 +11 +11 1010.3 930.0 0.1
10 12.06 Ю 3 26 км 10/10 450 м
[]
+11.7 +8.5 81 +10 +10 1012.1 931.4
11 12.06 ЮЗ 3 30 км 10/10 500 м
[]
+12.9 +8.8 76 +12 +12 1012.3 931.9
12 12.06 З 2 45 км в посл. час дождь {морось} 10/0 2000 м
[]
+14.6 +9.5 71 +14 +23 1012.0 932.1 0.0
13 12.06 З 2 65 км 10/0 2000 м
[]
+14.4 +9.0 70 +14 +22 1012.2 932.2
14 12.06 З 1 60 км в посл. час дождь {морось} 9/9 1500 м
[]
+14.3 +10.0 75 +15 +16 1012.6 932.5
15 12.06 СВ 1 60 км в посл. час дождь {морось} 10/0
[]
+14.9 +9.5 70 +15 +21 1012.4 932.5 0.1
16 12.06 СВ 2 19 км в посл. час дождь 9/0
[]
+15.9 +9.4 65 +16 +19 1011.4 931.8
17 12.06 В 2-3
{4}
45 км ясно +16.5 +8.2 58 +17 +19 1011.3 931.9
18 12.06 С 1 70 км в посл. час дождь {морось} 10/10 1000 м
[]
+16.5 +6.9 53 +17 +17 1011.4 931.9 +11.7 +17.5 0.0
19 12.06 В 1 70 км 10/10 900 м
[]
+16.0 +9.3 64 +17 +17 1012.2 932.6
20 12.06 ЮВ 1 30 км в посл. час дождь {морось} 10/10 870 м
[]
+14.9 +10.8 76 +15 +15 1013.0 933.1
21 12.06 ЮВ 1 55 км {дождь, морось} 10/10 1230 м
[]
+14.4 +10.7 78 +15 +15 1013.3 933.2 0.0
22 12.06 З 1-1
{2}
50 км 10/10 1230 м
[]
+14.1 +11.0 82 +14 +14 1013.7 933.5
23 12.06 штиль 0-1
{2}
55 км 10/10 1320 м
[]
+13.8 +11.1 84 +13 +13 1014.1 933.8
00 13.06 В 1 50 км {дождь, морось} 10/10 600 м
[]
+13.3 +11.3 88 +13 +13 1014.4 934.0
01 13.06 СВ 1-1
{2}
50 км 9/9 1440 м
[]
+12.8 +11.3 91 +13 +13 1014.5 933.9
02 13.06 В 1-1
{1}
40 км 10/10 1170 м
[]
+12.9 +11.1 89 +13 +13 1014.4 933.9
03 13.06 В 1 40 км 10/10 1380 м
[]
+13.0 +11.1 88 +13 +13 1014.5 934.0
04 13.06 СВ 1-2
{2}
35 км 10/10 1500 м
[]
+13.0 +10.9 87 +13 +13 1015.0 934.4
05 13.06 штиль 0-1
{1}
30 км 10/10 1500 м
[]
+13.6 +11.7 88 +13 +13 1015.0 934.6
06 13.06 штиль 0 27 км 9/9 1500 м
[]
+14.4 +11.0 80 +14 +15 1014.7 934.5 +12.7 +16.6 0.0
07 13.06 Ю 1-2
{2}
40 км 10/10 1500 м
[]
+15.4 +10.4 72 +16 +16 1014.6 934.7
08 13.06 С 2-4
{4}
40 км 9/9 1500 м
[]
+16.5 +9.1 62 +17 +18 1014.0 934.4
09 13.06 С 1 40 км 8/8 1500 м
[]
+19.2 +8.7 51 +21 +24 комфорт 1013.2 934.3
10 13.06 В 2-5
{5}
30 км ясно +19.4 +6.4 43 +21 +38 комфорт 1013.2 934.3
11 13.06 СЗ 2-3
{4}
25 км ясно +20.2 +6.2 40 +22 +40 комфорт 1012.9 934.3
12 13.06 СЗ 1-4
{5}
17 км ясно +21.6 +7.7 41 +23 +44 комфорт 1012.3 934.1
13 13.06 СЗ 2-6
{6}
16 км 5/5 1500 м
[]
+22.2 +9.5 44 +24 +32 комфорт 1012.0 934.0
14 13.06 СЗ 2-5
{6}
11 км 5/5 1500 м
[]
+22.1 +10.1 46 +24 +30 комфорт 1012.1 934.1
15 13.06 З 2 28 км 6/6 1500 м
[]
+22.6 +9.4 43 +24 +28 комфорт 1011.9 934.0
16 13.06 СЗ 2-4
{5}
45 км 5/5 1500 м
[]
+22.6 +9.6 44 +24 +27 комфорт 1012.0 934.1
17 13.06 СЗ 1-3
{5}
30 км 9/9 1500 м
[]
+22.4 +9.2 43 +24 +24 комфорт 1012.4 934.4
18 13.06 З 1 45 км 10/10 1500 м
[]
+21.2 +10.1 49 +23 +23 комфорт 1013.4 935.1 +14.4 +23.2
19 13.06 СЗ 1-3
{4}
40 км 9/9 1500 м
[]
+20.2 +10.5 54 +23 +23 комфорт 1014.2 935.6
20 13.06 В 1-2
{3}
40 км ясно +16.3 +11.9 75 +17 +17 1015.9 936.2
21 13.06 В 1-2
{4}
28 км ясно +14.3 +11.9 85 +15 +15 1016.7 936.4
22 13.06 В 2-2
{3}
20 км ясно +12.7 +11.1 90 +12 +12 1017.5 936.7
23 13.06 В 2-3
{3}
20 км ясно +11.4 +10.2 92 +10 +10 1018.1 936.8
00 14.06 В 2 20 км ясно +11.0 +9.9 93 +10 +10 1018.3 936.9
01 14.06 В 2-3
{3}
13 км ясно +10.1 +9.3 95 +8 +8 1018.3 936.6
02 14.06 ЮВ 2-3
{3}
12 км ясно +9.8 +9.2 96 +8 +8 1018.3 936.6
03 14.06 ЮВ 2-3
{3}
26 км ясно +10.3 +9.5 95 +9 +9 1018.1 936.5
04 14.06 В 3-3
{3}
21 км ясно +10.0 +9.0 93 +8 +8 1017.9 936.2
05 14.06 В 2-3
{3}
18 км ясно +11.2 +9.5 89 +10 +11 1017.0 935.8
06 14.06 Ю 1 17 км ясно +14.4 +10.4 77 +15 +19 1016.0 935.7 +9.7 +21.2
07 14.06 ЮВ 1-2
{2}
24 км ясно +17.4 +9.9 61 +18 +27 1014.9 935.5
08 14.06 СЗ 1-2
{2}
23 км ясно +20.3 +11.2 56 +23 +36 комфорт 1014.2 935.6
09 14.06 ЮВ 1 27 км 9/0
[]
+22.8 +11.4 49 +25 +34 комфорт 1013.6 935.7
10 14.06 СЗ 1-3
{3}
23 км ясно +25.0 +10.8 41 +26 +46 жарко 1013.0 935.7
11 14.06 СЗ 3-5
{5}
23 км ясно +25.9 +12.1 42 +27 +43 жарко 1013.4 936.3
12 14.06 СЗ 3 28 км 9/0
[]
+26.3 +13.1 44 +28 +36 жарко 1013.3 936.3
13 14.06 СЗ 2 25 км 8/0
[]
+26.3 +11.9 41 +28 +37 жарко 1013.0 936.0
14 14.06 С 3-4
{5}
25 км 10/0
[]
+26.1 +13.2 45 +28 +33 жарко 1012.2 935.3
15 14.06 С 2 21 км 5/0
[]
+26.3 +13.8 46 +28 +35 жарко 1011.6 934.8
16 14.06 С 2-4
{6}
45 км 3/0
[]
+27.1 +13.4 43 +29 +34 жарко 1010.8 934.2
17 14.06 СВ 2 26 км 10/0
[]
+25.1 +14.5 52 +28 +29 жарко 1010.0 933.0
18 14.06 СВ 1 23 км 10/0
[]
+23.5 +16.5 65 +27 +27 душно 1010.2 932.9 +14.2 +27.4
19 14.06 СЗ 1 24 км 10/0
[]
+21.8 +16.4 71 +26 +26 душно 1010.1 932.4
20 14.06 СЗ 1-2
{2}
19 км ясно +19.6 +15.8 79 +23 +23 комфорт 1010.9 932.5
21 14.06 ЮВ 2 15 км 10/0
[]
+17.5 +15.6 89 +18 +18 1012.1 933.1
22 14.06 В 1 15 км 10/0
[]
+18.0 +15.3 84 +19 +19 1011.3 932.5
23 14.06 В 1 11 км 10/0
[]
+16.5 +14.6 89 +17 +17 1011.5 932.2
00 15.06 ЮВ 1 10 км 10/0
[]
+15.8 +14.5 92 +16 +16 1011.3 931.9
01 15.06 ЮВ 2 9000 м 9/0
[]
+15.4 +14.2 93 +15 +15 1010.7 931.2
02 15.06 В 3 9000 м 10/0
[]
+14.8 +13.7 93 +14 +14 1010.3 930.7
03 15.06 ЮВ 2 11 км 4/0
[]
+14.4 +13.3 93 +14 +14 1010.6 930.8
04 15.06 ЮВ 2-4
{7}
19 км 5/0
[]
+15.3 +12.5 83 +15 +15 1011.5 931.9
05 15.06 З 3 11 км 9/0
[]
+18.7 +12.2 66 +20 +20 1012.4 933.6
06 15.06 ЮЗ 3 5000 м дым 1/0
[]
+18.9 +12.7 67 +20 +23 1013.2 934.4 +14.4 +23.7
07 15.06 З 4 17 км 9/0
[]
+19.1 +11.4 61 +20 +23 1013.9 935.0
08 15.06 ЮЗ 3 11 км 5/0
[]
+20.3 +12.4 60 +23 +29 комфорт 1013.8 935.3
09 15.06 З 4 12 км 9/0
[]
+20.6 +11.9 57 +23 +28 комфорт 1014.3 935.8
10 15.06 З 4-9
{9}
21 км 4/0
[]
+21.1 +12.0 56 +23 +32 комфорт 1014.3 935.9
11 15.06 З 3-6
{9}
21 км 3/0
[]
+21.5 +12.3 56 +24 +37 комфорт 1014.3 936.0
12 15.06 З 3 28 км 5/5 1170 м
[]
+22.2 +12.1 53 +25 +32 комфорт 1014.1 936.0
13 15.06 З 3-6
{9}
40 км 10/10 1500 м
[]
+22.0 +10.0 46 +24 +24 комфорт 1014.2 936.0
14 15.06 ЮЗ 3-5
{7}
35 км 10/10 1500 м
[]
+21.0 +11.0 53 +23 +23 комфорт 1014.3 935.9
15 15.06 Ю 3 27 км 10/10 1500 м
[]
+21.4 +10.7 50 +23 +23 комфорт 1013.8 935.5
16 15.06 Ю 1-2
{4}
35 км 10/10 1500 м
[]
+20.9 +10.3 51 +24 +24 комфорт 1013.5 935.1
17 15.06 В 1 40 км 10/10 1500 м
[]
+20.7 +11.0 54 +24 +24 комфорт 1013.2 934.8
18 15.06 С 1 40 км 10/10 1000 м
[]
+20.6 +10.7 53 +23 +23 комфорт 1013.3 934.8 +18.7 +23.5
19 15.06 С 2 30 км в посл. час дождь 10/10 1050 м
[]
+18.4 +14.7 79 +19 +19 1013.7 934.8
20 15.06 СЗ 1 9000 м слаб. морось {дождь} 9/9 540 м
[]
+16.6 +15.2 91 +17 +17 1015.1 935.6
21 15.06 З 6 1100 м сильн. дождь {ливн. осадки} 10/10 240 м
[]
+12.4 +11.8 96 +10 +10 1018.9 937.9 10
22 15.06 ЮЗ 3 27 км слаб. морось с дождем 10/10 500 м
[]
+13.2 +11.4 89 +12 +12 1019.7 938.8
23 15.06 Ю 1 50 км в посл. час дождь {морось} 10/10 570 м
[]
+13.0 +11.6 91 +13 +13 1020.3 939.3
00 16.06 ЮЗ 2 40 км в посл. час дождь {ливн. осадки} 10/10 300 м
[]
+12.9 +11.4 91 +12 +12 1020.5 939.5 4
01 16.06 ЮВ 1 17 км слаб. дождь 10/10 1020 м
[]
+12.5 +11.8 95 +12 +12 1020.3 939.2
02 16.06 ЮВ 2 45 км в посл. час дождь {морось} 10/10 480 м
[]
+12.5 +11.4 93 +11 +11 1020.3 939.2
03 16.06 Ю 1 40 км в посл. час дождь {морось} 10/10 540 м
[]
+12.5 +11.5 94 +12 +12 1020.3 939.2 0.0
04 16.06 Ю 1 40 км 10/10 480 м
[]
+12.9 +10.8 87 +13 +13 1020.2 939.2
05 16.06 ЮЗ 2-3
{4}
35 км 10/10 300 м
[]
+13.0 +11.1 88 +12 +12 1020.7 939.7
06 16.06 ЮЗ 1 40 км {дождь, морось} 10/10 300 м
[]
+13.4 +11.1 86 +14 +14 1021.1 940.2 +12.4 +20.5 13
07 16.06 ЮЗ 2 40 км 10/10 480 м
[]
+14.4 +11.0 80 +14 +14 1021.3 940.6
08 16.06 З 3 30 км 9/9 700 м
[]
+15.9 +10.1 68 +15 +16 1020.8 940.5
09 16.06 З 3 21 км 9/9 750 м
[]
+17.3 +11.3 68 +17 +18 1020.5 940.6
10 16.06 З 3 30 км 6/6 800 м
[]
+17.8 +10.8 64 +18 +24 1020.5 940.8
11 16.06 З 4 25 км 8/8 870 м
[]
+17.5 +10.3 63 +17 +20 1020.9 941.0
12 16.06 ЮЗ 3 25 км 10/10 930 м
[]
+18.3 +10.8 62 +19 +19 1020.3 940.7
13 16.06 СЗ 2 40 км 10/10 960 м
[]
+17.5 +10.7 64 +18 +18 1020.5 940.7
14 16.06 СЗ 2 30 км 10/10 660 м
[]
+18.1 +12.0 68 +19 +19 1020.5 940.9
15 16.06 СЗ 2 21 км 10/0
[]
+18.5 +11.6 64 +20 +24 1020.1 940.6
16 16.06 С 1 50 км 10/10 870 м
[]
+18.4 +11.2 63 +20 +20 1020.0 940.5
17 16.06 СЗ 2 45 км 10/10 1500 м
[]
+18.2 +10.5 61 +19 +19 1020.4 940.8
18 16.06 С 1 50 км 10/0 2000 м
[]
+17.8 +10.6 63 +19 +19 1020.7 940.9 +13.3 +19.0
19 16.06 СВ 1-2
{3}
55 км 10/0 2000 м
[]
+17.5 +11.3 67 +19 +19 1020.6 940.8
20 16.06 В 1-2
{2}
45 км 9/0 2000 м
[]
+16.2 +11.4 73 +17 +17 1021.3 941.1
21 16.06 СВ 2-3
{3}
30 км ясно +14.9 +11.6 81 +15 +15 1021.9 941.3
22 16.06 СВ 2-3
{3}
25 км ясно +13.8 +11.5 86 +13 +13 1022.0 941.1
23 16.06 СВ 1-3
{3}
19 км ясно +12.7 +11.4 92 +13 +13 1022.0 940.8
00 17.06 В 1 11 км ясно +11.6 +10.9 95 +11 +11 1022.2 940.7
01 17.06 СВ 1-1
{2}
10 км ясно +10.7 +10.0 95 +10 +10 1022.0 940.2
02 17.06 В 1-2
{3}
5000 м дымка ясно +10.4 +10.0 97 +10 +10 1021.6 939.8
03 17.06 В 1-1
{3}
9000 м ясно +9.7 +9.2 97 +9 +9 1021.9 939.8
04 17.06 С 1-1
{1}
5000 м дымка 10/10 210 м
[]
+11.3 +11.0 98 +11 +11 1021.3 939.8
05 17.06 С 1-3
{3}
8000 м 10/10 270 м
[]
+13.3 +12.3 94 +13 +13 1020.7 939.8
06 17.06 В 1 11 км 10/10 300 м
[]
+14.7 +12.3 86 +15 +15 1020.1 939.6 +9.5 +17.9
07 17.06 В 2-4
{6}
15 км 10/10 420 м
[]
+15.6 +12.2 80 +16 +16 1019.7 939.5
08 17.06 СВ 2-5
{6}
18 км 6/6 540 м
[]
+17.5 +12.8 74 +18 +22 1018.5 938.9
09 17.06 СВ 3 14 км ясно +19.3 +12.7 66 +21 +33 комфорт 1017.6 938.5
10 17.06 СВ 3-6
{7}
15 км 1/1 930 м
[]
+20.7 +12.5 59 +23 +36 комфорт 1016.9 938.2
11 17.06 СВ 3-7
{7}
11 км 1/1 1020 м
[]
+22.0 +13.7 59 +25 +39 комфорт 1016.0 937.8
12 17.06 СВ 3 10 км 4/4 1110 м
[]
+22.7 +13.2 55 +26 +35 жарко 1015.5 937.5
13 17.06 СВ 2-5
{6}
7000 м дым ясно +23.1 +13.1 53 +26 +42 жарко 1015.2 937.3
14 17.06 СВ 3-6
{6}
11 км 1/1 1300 м
[]
+23.5 +12.7 51 +26 +35 жарко 1014.7 936.9
15 17.06 СВ 3 9000 м 1/1 1320 м
[]
+24.2 +13.4 51 +26 +33 жарко 1014.3 936.7
17 17.06 В 3 19 км 10/10 1380 м
[]
+23.4 +13.4 53 +27 +27 душно 1014.0 936.3
18 17.06 В 2 30 км 10/0
[]
+22.5 +13.3 56 +25 +26 комфорт 1014.4 936.4 +14.7 +24.7

 

Местоположение метеостанции Кемптен (Германия): широта 47.72 долгота 10.33 высота над уровнем моря 705 м.

В архиве по умолчанию представлена погода в Кемптене за последнюю неделю. Архивные данные за месяц целиком и за предыдущие месяцы, начиная с января 2011 года, Вы можете получить, выбрав интересующий диапазон дат из раскрывающегося списка и нажав кнопку "Ввод!".


*Определитесь, кто Вы:
робот инопланетянин человек

Внимание! Время в таблицах - всемирное. Для получения местного времени необходимо прибавить поправку, которая равна 1 ч.

Смотрите также архив погоды в соседних городах и на ближайших метеорологических станциях:

Погода в Херлацхофене (Германия) (24 км)
Погода в Оберстдорфе (Германия) (36 км)
Погода в Ройтте (Австрия) (39 км)
Погода в Альтенштадте (Германия) (42 км)
Погода в Альбершвенде (Австрия) (46 км)
Погода в Брегенце (Австрия) (50 км)
Погода в Хоэнпайсенберге (Германия) (52 км)
Погода в Варте (Австрия) (53 км)
Погода в Дорнбирне (Австрия) (55 км)
Погода в Ландсберге (Германия) (58 км)

Пояснения к столбцам:

Ветер - указаны скорость ветра в м/с - средняя за 10 мин, порывы в срок и между сроками (в фигурных скобках) и направление, откуда дует ветер: С - северный, СВ - северо-восточный, В - восточный, ЮВ - юго-восточный, Ю - южный, ЮЗ - юго-западный, З - западный, СЗ - северо-западный.
Видимость - горизонтальная дальность видимости в метрах или километрах. При видимости от 1 до 10 км при отсутствии осадков обычно наблюдается дымка, при ухудшении видимости до 1 км и менее - туман. В сухую погоду видимость может ухудшаться дымом, пылью или мглою.
Явления - указаны атмосферные явления, наблюдавшиеся в срок или в последний час перед сроком; фигурными скобками обозначены явления, наблюдавшиеся между сроками (за 1-3 часа до срока); квадратными скобками обозначены град или гололедные отложения с указанием их диаметра в мм.
Облачность - указаны через наклонную черту общая и нижняя облачность в баллах и высота нижней границы облаков в метрах; квадратными скобками обозначены формы облаков: Ci - перистые, Cs - перисто-слоистые, Cc - перисто-кучевые, Ac - высококучевые, As - высокослоистые, Sc - слоисто-кучевые, Ns - слоисто-дождевые, Cu - кучевые, Cb - кучево-дождевые. Подробнее классификацию облаков см. в Атласе облаков (PDF).
T - Температура воздуха - температура, измеренная на высоте 2 м над землей.
Td - Температура точки росы - температура, при понижении до которой содержащийся в воздухе водяной пар достигнет насыщения.
f - Относительная влажность воздуха - влажноcть воздуха, измеренная на высоте 2 м над землей.
Te - Эффективная температура - температура, которую ощущает одетый по сезону человек в тени. Характеристика душности погоды. При расчете учитывается влияние влажности воздуха и скорости ветра на теплоощущения человека.
Tes - Эффективная температура на солнце - температура, которую ощущает человек, с поправкой на солнечный нагрев. Характеристика знойности погоды. Зависит от высоты солнца над горизонтом, облачности и скорости ветра. Ночью, в пасмурную погоду, а также при ветре 12 м/с и более поправка равна нулю.
P - Атмосферное давление - приведенное к уровню моря атмосферное давление.
Po - Атмосферное давление - измеренное на уровне метеостанции атмосферное давление.
Tmin - Минимальная температура - минимум температуры воздуха на высоте 2 м над землей.
Tmax - Максимальная температура - максимум температуры воздуха на высоте 2 м над землей.
R - Количество осадков - Количество выпавших осадков за период времени, мм. При наведении курсора мыши на число - период времени, за который выпало указанное количество осадков.
R24 - Количество осадков - Количество выпавших осадков за 24 часа, мм.
S - Снежный покров - Высота снежного покрова, см. При наведении курсора мыши на число - состояние снежного покрова и степень покрытия местности в баллах.